Home   Weather   Danmarkshavn   Past weeks

Flag for Greenland Past Weather in Danmarkshavn, Greenland — Yesterday and Last 2 Weeks

Now
32 °F

Light snow. Overcast.


Feels Like: 23 °F
Forecast: N/A
Wind: 12 mph from West

Location: Danmarkshavn

Current Time: Sep 27, 2016 at 3:39:18 PM

Latest Report: Sep 27, 2016 at 3:00 PM


Visibility: 8 mi

Pressure: 29.58 "Hg

Humidity: 84%

Dew Point: 28 °F

Location of DanmarkshavnLocation

Past Weather in Danmarkshavn — Graph

°F

Danmarkshavn Temperature Yesterday

Maximum temperature yesterday: 35 °F (at 6:00 AM)
Minimum temperature yesterday: 27 °F (at 4:00 PM)
Average temperature yesterday: 32 °F

High & Low Weather Summary for the Past Weeks

 TemperatureHumidityPressure
High36 °F (Sep 13, 3:00 PM)96% (Sep 13, 2:00 AM)30.18 "Hg (Sep 13, 2:00 AM)
Low18 °F (Sep 21, 6:00 AM)35% (Sep 26, 6:00 AM)29.29 "Hg (Sep 17, 2:00 PM)
Average29 °F67%29.80 "Hg
* Reported Sep 12 2:00 PM — Sep 27 2:00 PM, Danmarkshavn, Weather by CustomWeather, © 2016

Note: Actual official high and low records may vary slightly from our data, if they occured in-between our weather recording intervals... More about our weather records

Advertising

Danmarkshavn Weather History for the Previous 24 Hours

Scroll right to see more
 ConditionsComfort  
Time TempWeatherWind HumidityBarometerVisibility
2:00 PM
Tue, Sep 27
31 °FOvercast.12 mph89%29.57 "Hg25 mi
1:00 PM31 °FOvercast.16 mph84%29.57 "Hg14 mi
12:00 PM30 °FOvercast.13 mph89%29.57 "Hg6 mi
11:00 AM30 °FLight snow. Overcast.10 mph86%29.57 "Hg7 mi
10:00 AM30 °FLight snow. Overcast.13 mph84%29.57 "Hg2 mi
9:00 AM30 °FOvercast.20 mph82%29.56 "Hg6 mi
8:00 AM30 °FLight snow. Overcast.21 mph84%29.56 "Hg1 mi
7:00 AM29 °FLight snow. Overcast.13 mph83%29.56 "Hg3 mi
6:00 AM29 °FLight snow. Overcast.17 mph79%29.55 "Hg7 mi
5:00 AM29 °FLight snow. Overcast.20 mph86%29.55 "Hg3 mi
4:00 AM29 °FHeavy snow. Overcast.14 mph84%29.56 "Hg2 mi
3:00 AM28 °FLight snow. Low clouds.17 mph87%29.57 "Hg1 mi
2:00 AM29 °FLight snow. Overcast.13 mph86%29.58 "Hg1 mi
1:00 AM31 °FLight snow. Overcast.18 mph80%29.57 "Hg7 mi
12:00 AM31 °FLight snow. Overcast.21 mph65%29.58 "Hg6 mi
11:00 PM
Mon, Sep 26
31 °FOvercast.21 mph56%29.61 "Hg31 mi
10:00 PM32 °FOvercast.10 mph61%29.62 "Hg31 mi
9:00 PM30 °FOvercast.3 mph59%29.63 "Hg31 mi
8:00 PM30 °FOvercast.2 mph58%29.66 "Hg31 mi
7:00 PM29 °FOvercast.3 mph65%29.67 "Hg31 mi
6:00 PM28 °FPartly sunny.9 mph74%29.70 "Hg31 mi
5:00 PM29 °FScattered clouds.2 mph63%29.73 "Hg31 mi
4:00 PM27 °FPassing clouds.2 mph72%29.75 "Hg15 mi
3:00 PM28 °FSunny.6 mph72%29.77 "Hg31 mi
Weather by CustomWeather, © 2016

See weather overviewHow to use our weather pages